Wind_Speed
2 3 2 1 1 2 2 2 3 2 2 2 2 2 2 1 1 1 2 2 2 2 2 2 2 2 2 3 3 3 3 4 4 4 4 5 5 6 6 6 7 8 8
3 2 2 1 1 1 1 2 2 2 2 3 2 1 1 1 1 1 2 3 3 4 3 3 3 3 3 3 4 4 4 4 4 5 5 5 6 6 7 7 7 8 8
2 2 1 1 1 1 1 1 1 2 2 1 1 2 2 2 1 2 2 3 3 4 4 5 5 4 4 4 5 5 5 6 6 6 6 6 6 7 7 8 8 8 9
2 2 1 1 1 1 0 0 1 1 2 2 1 2 2 2 2 2 3 3 4 5 5 5 5 5 5 6 6 6 6 8 8 7 8 8 8 8 8 9 9 9 9
3 2 1 1 1 0 1 1 1 1 2 3 3 3 3 3 4 3 4 4 5 5 6 6 6 6 7 7 8 8 8 8 9 8 8 9 9 10 9 9 10 10 10
2 1 1 1 0 1 1 1 1 2 3 3 4 4 4 4 4 5 5 6 6 6 7 7 8 8 8 8 9 10 10 9 9 9 10 10 11 11 11 10 11 11 12
1 1 1 1 1 1 1 2 2 2 3 3 4 4 4 5 5 5 6 7 7 8 8 8 8 9 9 9 10 11 11 11 10 10 11 11 11 11 11 11 11 12 12
0 1 1 2 2 2 2 2 3 3 4 5 5 5 5 6 7 7 7 8 8 9 9 10 11 10 10 10 11 11 11 12 11 11 11 11 12 12 12 12 12 12 12
2 2 2 3 3 4 4 4 4 5 6 7 7 7 7 7 7 8 9 9 10 10 10 11 12 12 12 12 12 12 13 13 13 12 12 12 12 12 13 13 13 13 13
3 4 4 4 4 5 5 6 6 7 7 7 8 8 8 8 9 9 9 10 11 12 12 12 12 13 13 14 14 14 14 14 14 14 13 13 12 12 12 13 13 13 14
5 5 6 6 6 7 7 7 7 8 8 8 9 9 10 10 10 11 11 12 12 12 13 13 14 13 14 14 14 14 14 14 15 15 15 14 14 13 14 14 14 15 15
6 7 7 8 8 9 9 9 9 9 10 10 10 11 11 11 11 12 12 13 13 14 14 14 14 15 15 15 15 15 14 14 15 15 16 17 16 16 16 16 16 16 15
8 9 9 9 10 10 9 9 10 10 11 12 12 13 13 13 13 13 13 14 15 15 15 15 16 16 16 17 16 15 15 16 16 16 17 17 17 17 17 17 17 17 17
8 9 9 9 9 10 10 11 12 12 13 14 14 15 15 15 15 15 15 16 16 17 17 18 18 18 18 17 17 16 16 16 16 17 18 18 19 19 19 19 18 18 18
10 10 11 11 11 11 12 13 13 14 15 16 16 17 17 17 17 17 17 17 18 18 18 19 20 19 19 18 18 17 18 18 18 19 19 19 20 20 21 20 20 21 20
12 12 13 13 13 14 14 15 16 16 16 17 18 18 19 19 19 19 19 19 19 19 20 21 21 20 20 20 20 20 20 19 19 20 21 21 21 21 21 21 21 20 20
14 14 15 15 15 16 16 17 18 18 18 18 18 19 20 20 20 20 20 20 20 21 21 22 22 22 22 22 22 21 20 19 20 21 22 23 23 23 23 23 22 22 21
15 15 16 16 16 17 17 18 18 19 19 19 20 20 20 21 21 21 21 22 22 22 22 23 23 23 23 23 23 22 22 22 22 22 22 23 23 23 24 24 24 24 23
16 16 17 17 18 18 18 19 19 19 20 20 21 21 21 21 22 22 22 23 23 23 23 23 23 23 23 23 23 23 22 22 22 22 22 23 23 24 25 25 25 25 25
16 17 18 18 19 19 19 20 20 21 22 22 21 22 22 22 22 22 23 23 24 24 24 24 23 23 24 24 23 23 23 23 23 23 23 23 24 25 25 26 26 26 26
17 17 18 19 19 20 21 21 21 22 22 21 21 22 22 22 23 23 23 24 24 24 25 25 24 24 24 24 24 24 24 24 24 24 24 25 25 25 26 26 26 27 28
18 17 18 19 20 21 22 23 23 23 23 22 22 22 23 22 23 23 24 24 25 25 26 26 25 25 25 24 25 25 25 25 26 25 25 25 26 26 27 27 27 28 28
18 18 19 20 20 21 21 22 22 23 23 24 23 23 23 23 24 24 25 25 26 26 25 25 25 25 25 25 26 26 26 27 27 28 28 27 27 27 27 27 28 29 29
18 18 19 20 20 21 21 22 22 22 23 23 24 23 23 24 24 25 25 25 24 24 24 25 25 26 26 27 28 28 28 28 28 28 28 28 27 27 27 27 28 28 29
19 20 20 21 21 21 22 22 22 23 23 24 24 24 24 25 25 25 25 26 26 26 26 26 26 27 28 29 29 28 27 27 27 28 28 27 26 27 27 28 28 28 29
20 20 21 22 22 23 23 24 24 24 24 25 24 24 25 25 26 26 25 26 27 27 27 28 28 28 28 28 28 27 27 26 26 26 26 26 26 27 27 27 28 28 28
Wind_Direction
115 105 87 83 90 70 58 68 69 59 60 44 50 59 46 26 19 305 299 304 300 304 311 288 302 307 309 305 303 288 281 286 285 282 275 263 260 253 250 250 246 243 242
132 128 101 84 90 76 64 59 51 20 27 36 31 27 29 332 312 303 308 319 312 299 294 289 294 291 287 296 301 297 285 282 279 276 272 266 260 255 253 254 250 243 241
135 128 135 114 109 103 83 59 34 23 29 12 10 8 352 328 320 308 309 313 311 301 293 293 289 283 283 288 293 292 284 279 279 276 272 266 261 257 254 256 253 246 243
106 106 81 104 132 162 122 346 355 350 353 353 342 341 338 328 323 315 307 303 307 306 309 300 296 289 291 291 290 287 283 282 278 275 271 262 260 259 258 258 257 252 247
91 87 70 101 136 110 10 328 330 329 333 344 346 330 328 324 318 316 304 301 305 305 313 309 295 292 294 283 279 285 284 279 277 270 267 264 264 262 261 261 258 255 250
74 60 78 66 69 8 347 329 312 312 317 320 326 322 316 315 315 316 310 309 308 307 307 303 296 293 289 287 284 283 281 272 275 270 266 264 266 265 265 264 259 255 251
66 39 30 12 357 346 335 325 321 326 329 316 312 318 321 324 321 317 312 308 304 304 306 305 297 291 287 286 291 287 287 282 276 270 265 263 263 264 264 263 262 261 257
306 309 344 338 328 324 320 319 325 325 322 316 311 310 309 311 315 314 314 311 305 303 304 303 299 297 293 291 287 285 285 282 275 269 264 262 262 262 262 261 262 262 260
280 276 286 306 312 309 311 314 311 312 311 307 303 303 301 302 304 307 309 311 311 308 307 306 303 302 299 294 288 286 284 282 277 270 265 264 266 267 268 264 260 259 260
278 279 281 289 299 301 304 307 307 309 308 303 301 302 302 298 301 303 303 305 307 308 309 308 308 304 301 293 290 290 286 283 277 269 266 267 270 269 269 269 267 265 262
286 283 282 283 288 293 298 300 302 304 304 302 301 301 301 299 298 299 300 301 302 303 304 305 305 305 301 296 291 288 285 283 275 269 264 265 269 269 267 267 268 270 268
292 287 281 281 284 286 291 296 298 299 297 297 298 298 299 300 299 296 297 298 300 300 301 301 301 301 302 298 292 286 282 280 276 270 264 264 267 269 269 266 266 268 267
291 283 281 283 284 286 288 291 294 294 294 294 295 296 297 298 298 297 297 297 298 299 300 301 299 299 298 295 291 287 284 280 279 273 267 266 267 269 270 267 264 267 265
298 292 287 286 285 286 287 290 292 294 294 294 292 292 293 294 295 296 296 297 296 296 296 297 298 298 296 294 290 287 283 282 279 275 271 268 267 268 269 268 265 267 266
294 294 291 289 288 288 287 288 288 290 292 292 292 291 292 291 291 293 293 294 294 294 295 295 296 296 294 294 290 286 284 282 279 276 273 270 268 267 267 267 267 265 266
292 292 290 290 289 288 289 289 288 288 290 292 293 293 291 289 289 290 290 291 291 292 293 293 294 292 290 290 288 286 285 281 278 275 272 270 268 266 266 267 268 267 265
289 290 288 288 288 289 289 291 290 290 291 291 292 292 290 289 289 289 289 290 292 293 294 294 292 289 289 288 286 285 284 283 280 276 273 272 269 267 266 266 266 266 267
284 285 286 287 288 289 289 290 292 290 292 292 294 295 294 289 288 288 289 290 290 292 295 295 293 291 290 287 285 283 282 281 281 279 275 271 269 267 266 266 266 266 266
283 284 286 287 287 288 289 290 292 292 293 294 294 294 295 294 291 288 288 289 290 292 294 295 292 291 289 287 286 282 282 280 281 280 277 273 272 269 267 267 266 266 265
288 287 287 286 285 287 290 291 291 292 293 293 294 294 295 295 293 290 290 290 289 291 293 293 292 291 290 288 287 283 281 280 280 278 278 275 273 271 269 267 266 265 265
291 289 287 285 285 286 288 290 291 292 292 293 294 295 294 294 293 291 291 291 290 291 292 292 292 291 289 287 286 284 282 281 279 278 278 274 273 272 269 268 267 265 264
296 292 291 288 287 288 289 291 291 292 293 294 294 293 295 295 295 293 292 291 289 290 290 290 291 289 289 288 287 284 282 280 279 279 279 276 273 273 272 270 268 266 266
299 297 297 295 293 291 292 293 295 297 298 297 295 293 292 294 294 293 292 292 289 288 289 289 289 289 289 289 287 285 283 283 281 278 277 277 276 275 274 272 269 267 266
299 299 298 296 295 295 296 297 296 298 299 300 298 296 296 294 294 293 293 292 292 291 291 291 292 291 290 289 287 286 285 284 282 281 280 277 275 274 274 272 269 267 266
298 298 298 297 295 295 298 300 299 298 298 298 298 295 295 295 296 295 292 290 290 290 291 291 292 292 291 290 288 287 286 284 282 280 279 277 273 272 272 272 271 268 266
296 297 298 298 296 295 295 297 297 298 297 297 296 297 297 297 299 296 293 292 291 291 292 292 292 293 292 289 288 287 286 285 283 281 279 276 275 274 272 271 272 269 267
Height
5893 5893 5893 5893 5892 5892 5892 5892 5891 5890 5889 5888 5886 5885 5884 5884 5883 5884 5884 5884 5883 5883 5882 5882 5881 5881 5880 5880 5879 5879 5878 5878 5877 5877 5877 5876 5876 5876 5876 5876 5876 5876 5876
5893 5893 5893 5893 5893 5892 5892 5891 5891 5890 5889 5888 5887 5886 5885 5884 5883 5883 5883 5883 5883 5882 5881 5880 5880 5879 5879 5878 5878 5877 5877 5876 5876 5875 5875 5875 5875 5874 5874 5874 5874 5874 5874
5893 5893 5893 5892 5892 5892 5892 5891 5890 5890 5889 5888 5887 5886 5885 5884 5883 5883 5883 5882 5882 5881 5880 5879 5878 5877 5877 5876 5876 5876 5875 5875 5874 5874 5873 5873 5873 5873 5873 5873 5873 5873 5872
5893 5893 5892 5892 5892 5892 5891 5891 5890 5889 5889 5888 5887 5886 5885 5884 5883 5883 5882 5881 5880 5880 5879 5878 5877 5876 5875 5875 5874 5874 5873 5872 5872 5872 5871 5871 5871 5871 5871 5871 5871 5871 5871
5893 5892 5892 5892 5891 5891 5891 5890 5890 5889 5888 5887 5886 5885 5885 5884 5883 5882 5881 5880 5879 5878 5877 5876 5875 5874 5873 5872 5872 5871 5871 5870 5869 5869 5869 5869 5869 5868 5868 5868 5868 5868 5868
5892 5892 5892 5891 5891 5891 5890 5889 5889 5888 5888 5887 5886 5885 5884 5883 5882 5881 5880 5879 5878 5876 5875 5874 5873 5872 5871 5871 5870 5869 5868 5867 5866 5866 5867 5867 5866 5866 5866 5865 5865 5865 5866
5892 5892 5891 5891 5890 5890 5889 5889 5888 5888 5887 5886 5885 5884 5883 5882 5882 5880 5879 5877 5876 5874 5873 5872 5871 5870 5869 5868 5867 5866 5865 5863 5864 5864 5863 5864 5863 5863 5863 5863 5863 5863 5863
5892 5891 5891 5890 5890 5889 5889 5888 5887 5886 5886 5885 5884 5883 5882 5882 5880 5879 5877 5876 5874 5872 5871 5870 5869 5868 5867 5865 5864 5863 5862 5862 5861 5860 5860 5860 5860 5860 5860 5859 5859 5860 5860
5890 5890 5889 5889 5889 5888 5887 5887 5886 5885 5884 5883 5882 5881 5880 5879 5878 5877 5876 5874 5872 5871 5870 5868 5867 5865 5864 5862 5861 5860 5859 5859 5857 5857 5857 5857 5857 5857 5856 5856 5856 5856 5856
5889 5888 5888 5887 5887 5886 5886 5885 5884 5883 5882 5881 5880 5879 5878 5877 5876 5875 5874 5872 5870 5869 5867 5865 5864 5862 5860 5859 5858 5857 5856 5855 5854 5854 5854 5854 5853 5853 5853 5853 5853 5852 5852
5887 5886 5886 5885 5884 5884 5883 5882 5881 5880 5879 5878 5877 5876 5875 5874 5873 5872 5871 5870 5868 5866 5864 5862 5861 5859 5857 5856 5854 5853 5852 5851 5851 5850 5850 5850 5850 5849 5849 5849 5849 5848 5847
5885 5884 5883 5882 5882 5881 5880 5879 5878 5877 5876 5875 5874 5873 5872 5871 5870 5869 5867 5866 5864 5863 5861 5859 5857 5856 5854 5852 5850 5849 5848 5848 5847 5846 5846 5846 5845 5845 5845 5845 5844 5844 5843
5882 5881 5880 5879 5879 5878 5877 5876 5875 5874 5873 5872 5871 5870 5868 5867 5866 5865 5864 5862 5861 5859 5857 5856 5853 5852 5850 5848 5846 5844 5844 5843 5842 5842 5841 5841 5841 5841 5840 5840 5840 5839 5839
5880 5879 5878 5877 5876 5875 5874 5873 5872 5871 5869 5868 5867 5866 5865 5863 5862 5861 5859 5858 5856 5855 5853 5851 5849 5847 5845 5843 5842 5840 5839 5838 5837 5837 5836 5836 5836 5836 5835 5835 5835 5835 5835
5877 5876 5875 5873 5872 5871 5870 5869 5868 5867 5865 5864 5863 5862 5860 5859 5857 5856 5854 5853 5852 5850 5848 5846 5844 5842 5840 5838 5836 5834 5834 5833 5832 5831 5831 5831 5830 5830 5830 5830 5830 5830 5830
5874 5873 5871 5870 5869 5868 5866 5865 5864 5862 5861 5860 5858 5857 5855 5854 5852 5850 5849 5847 5846 5844 5842 5840 5838 5837 5835 5833 5831 5829 5828 5827 5826 5825 5825 5825 5824 5824 5824 5824 5824 5824 5824
5870 5868 5867 5866 5864 5863 5862 5860 5859 5857 5856 5854 5852 5851 5849 5848 5846 5845 5843 5841 5840 5838 5836 5834 5832 5830 5829 5827 5825 5823 5822 5821 5820 5819 5818 5818 5818 5818 5818 5817 5817 5817 5818
5865 5863 5862 5860 5859 5858 5856 5855 5853 5852 5850 5849 5847 5845 5843 5842 5840 5839 5837 5835 5834 5832 5830 5828 5825 5823 5822 5820 5818 5817 5815 5814 5813 5812 5811 5811 5810 5810 5810 5810 5810 5810 5811
5859 5858 5856 5855 5854 5852 5851 5849 5848 5846 5844 5842 5841 5839 5837 5836 5834 5832 5831 5829 5827 5825 5823 5821 5819 5817 5815 5813 5811 5810 5808 5807 5806 5805 5804 5804 5803 5803 5803 5803 5803 5803 5803
5853 5852 5851 5850 5848 5847 5845 5844 5842 5840 5838 5836 5834 5833 5831 5829 5828 5826 5824 5822 5820 5818 5816 5814 5812 5810 5808 5806 5804 5803 5801 5800 5799 5798 5797 5796 5796 5795 5795 5795 5795 5795 5795
5848 5846 5845 5844 5842 5841 5839 5838 5836 5834 5832 5830 5828 5826 5824 5823 5821 5819 5817 5815 5813 5811 5809 5807 5805 5803 5801 5799 5797 5795 5794 5793 5792 5791 5789 5789 5788 5787 5787 5786 5786 5786 5787
5843 5841 5839 5838 5836 5835 5833 5831 5830 5827 5825 5823 5821 5819 5818 5816 5814 5812 5810 5808 5806 5804 5802 5800 5798 5796 5794 5792 5790 5788 5787 5785 5784 5783 5781 5780 5779 5779 5778 5778 5778 5778 5778
5837 5836 5834 5833 5831 5829 5827 5826 5823 5821 5819 5817 5815 5813 5811 5809 5807 5805 5803 5801 5799 5797 5795 5793 5790 5788 5786 5784 5783 5781 5779 5777 5775 5774 5773 5772 5771 5770 5770 5769 5769 5769 5769
5832 5830 5829 5827 5825 5824 5821 5819 5817 5815 5813 5810 5807 5805 5804 5802 5800 5798 5796 5793 5791 5789 5787 5785 5783 5781 5778 5776 5774 5772 5770 5768 5767 5765 5764 5763 5762 5762 5761 5760 5760 5759 5760
5827 5825 5823 5821 5819 5817 5815 5813 5811 5808 5806 5803 5800 5798 5797 5795 5793 5791 5788 5786 5784 5782 5779 5777 5775 5772 5770 5768 5766 5764 5762 5760 5758 5757 5755 5755 5754 5753 5752 5752 5751 5750 5750
5821 5819 5817 5815 5813 5811 5809 5806 5804 5801 5799 5797 5794 5792 5790 5788 5786 5783 5781 5779 5777 5774 5771 5769 5767 5764 5762 5759 5757 5755 5753 5752 5750 5749 5747 5746 5745 5744 5744 5743 5742 5741 5741